• In Portugal
  • List of Countries
  • For 7 days
  • Water Temperature
  • Satellite Maps
  • Weather Map
  • Weather Widgets
  • user-avatar
    Login

    Hourly Weather Sankt Polten

    Today, 24 October, Wednesday

    Time Temperature Precipitation Wind Pressure Humidity
    00:00 +8°C° 0.2 mm 9 mps 734 mmHg 76%
    01:00 +8°C° 0.2 mm 9 mps 734 mmHg 77%
    02:00 +8°C° 0.3 mm 9 mps 733 mmHg 78%
    03:00 +10°C° 0.3 mm 9 mps 732 mmHg 79%
    04:00 +9°C° 0.3 mm 10 mps 732 mmHg 79%
    05:00 +9°C° 0.4 mm 10 mps 731 mmHg 80%
    06:00 +9°C° 0.4 mm 10 mps 731 mmHg 80%
    07:00 +11°C° 0.4 mm 10 mps 731 mmHg 81%
    08:00 +11°C° 1.1 mm 10 mps 731 mmHg 82%
    09:00 +11°C° 1.1 mm 9 mps 731 mmHg 83%
    10:00 +11°C° 1.1 mm 9 mps 732 mmHg 85%
    11:00 +11°C° 2 mm 8 mps 732 mmHg 86%
    12:00 +10°C° 2 mm 8 mps 732 mmHg 86%
    13:00 +10°C° 2 mm 8 mps 733 mmHg 87%
    14:00 +10°C° 1.6 mm 7 mps 733 mmHg 86%
    15:00 +10°C° 1.6 mm 7 mps 733 mmHg 85%
    16:00 +10°C° 1.6 mm 7 mps 734 mmHg 84%
    17:00 +9°C° 1 mm 6 mps 735 mmHg 85%
    18:00 +9°C° 1 mm 5 mps 735 mmHg 85%
    19:00 +8°C° 1 mm 4 mps 736 mmHg 85%
    20:00 +8°C° 0.4 mm 4 mps 737 mmHg 86%
    21:00 +9°C° 0.4 mm 3 mps 737 mmHg 87%
    22:00 +8°C° 0.4 mm 3 mps 737 mmHg 88%
    23:00 +9°C° 0.5 mm 2 mps 737 mmHg 88%

    Tomorrow, 25 October, Thursday

    Time Temperature Precipitation Wind Pressure Humidity
    00:00 +9°C° 0.5 mm 2 mps 737 mmHg 89%
    01:00 +9°C° 0.5 mm 2 mps 737 mmHg 89%
    02:00 +10°C° 0.7 mm 3 mps 737 mmHg 90%
    03:00 +10°C° 0.7 mm 3 mps 737 mmHg 91%
    04:00 +11°C° 0.7 mm 3 mps 737 mmHg 92%
    05:00 +11°C° 0.2 mm 4 mps 737 mmHg 92%
    06:00 +11°C° 0.2 mm 4 mps 736 mmHg 91%
    07:00 +12°C° 0.2 mm 5 mps 736 mmHg 90%
    08:00 +12°C° 0.1 mm 5 mps 736 mmHg 88%
    09:00 +13°C° 0.1 mm 6 mps 736 mmHg 85%
    10:00 +13°C° 0.1 mm 6 mps 736 mmHg 82%
    11:00 +13°C° 0.1 mm 6 mps 735 mmHg 80%
    12:00 +14°C° 0.1 mm 6 mps 735 mmHg 78%
    13:00 +14°C° 0.1 mm 6 mps 735 mmHg 76%
    14:00 +14°C° 0 mm 6 mps 734 mmHg 77%
    15:00 +13°C° 0 mm 5 mps 734 mmHg 77%
    16:00 +13°C° 0 mm 5 mps 734 mmHg 78%
    17:00 +13°C° 0 mm 5 mps 734 mmHg 80%
    18:00 +12°C° 0 mm 4 mps 735 mmHg 82%
    19:00 +11°C° 0 mm 4 mps 735 mmHg 84%
    20:00 +11°C° 0 mm 4 mps 735 mmHg 85%
    21:00 +11°C° 0 mm 3 mps 735 mmHg 87%
    22:00 +10°C° 0 mm 3 mps 735 mmHg 88%
    23:00 +10°C° 0 mm 3 mps 735 mmHg 89%

    Day after tomorrow, 26 October, Friday

    Time Temperature Precipitation Wind Pressure Humidity
    00:00 +9°C° 0 mm 2 mps 735 mmHg 90%
    01:00 +9°C° 0 mm 2 mps 735 mmHg 91%
    02:00 +9°C° 0 mm 2 mps 735 mmHg 91%
    03:00 +9°C° 0 mm 2 mps 734 mmHg 91%
    04:00 +8°C° 0 mm 2 mps 734 mmHg 92%
    05:00 +9°C° 0 mm 1 mps 734 mmHg 92%
    06:00 +9°C° 0 mm 1 mps 734 mmHg 92%
    07:00 +9°C° 0 mm 1 mps 734 mmHg 92%
    08:00 +11°C° 0 mm 1 mps 734 mmHg 85%
    09:00 +13°C° 0 mm 1 mps 733 mmHg 78%
    10:00 +15°C° 0 mm 1 mps 733 mmHg 71%
    11:00 +16°C° 0 mm 1 mps 733 mmHg 68%
    12:00 +16°C° 0 mm 2 mps 732 mmHg 64%
    13:00 +17°C° 0 mm 2 mps 731 mmHg 60%
    14:00 +17°C° 0 mm 2 mps 731 mmHg 64%
    15:00 +16°C° 0 mm 2 mps 730 mmHg 69%
    16:00 +15°C° 0 mm 2 mps 730 mmHg 73%
    17:00 +14°C° 0 mm 2 mps 730 mmHg 78%
    18:00 +13°C° 0 mm 2 mps 730 mmHg 83%
    19:00 +10°C° 0 mm 2 mps 730 mmHg 88%
    20:00 +10°C° 0 mm 2 mps 731 mmHg 88%
    21:00 +10°C° 0 mm 2 mps 731 mmHg 88%
    22:00 +9°C° 0 mm 2 mps 731 mmHg 88%
    23:00 +9°C° 0 mm 2 mps 731 mmHg 87%

    27 October, Saturday

    Time Temperature Precipitation Wind Pressure Humidity
    00:00 +9°C° 0 mm 2 mps 731 mmHg 85%
    01:00 +9°C° 0 mm 3 mps 731 mmHg 84%
    02:00 +8°C° 0 mm 3 mps 731 mmHg 84%
    03:00 +8°C° 0 mm 2 mps 731 mmHg 85%
    04:00 +8°C° 0 mm 2 mps 731 mmHg 85%
    05:00 +8°C° 0.3 mm 2 mps 731 mmHg 86%
    06:00 +8°C° 0.3 mm 2 mps 731 mmHg 87%
    07:00 +7°C° 0.3 mm 2 mps 732 mmHg 88%
    08:00 +8°C° 0.6 mm 2 mps 732 mmHg 86%
    09:00 +8°C° 0.6 mm 2 mps 732 mmHg 83%
    10:00 +9°C° 0.6 mm 1 mps 732 mmHg 81%
    11:00 +9°C° 1 mm 1 mps 732 mmHg 82%
    12:00 +9°C° 1 mm 1 mps 732 mmHg 84%
    13:00 +7°C° 1 mm 0 mps 732 mmHg 85%
    14:00 +8°C° 1.1 mm 1 mps 732 mmHg 86%
    15:00 +8°C° 1.1 mm 1 mps 732 mmHg 88%
    16:00 +7°C° 1.1 mm 1 mps 732 mmHg 89%
    17:00 +7°C° 1.1 mm 1 mps 732 mmHg 89%
    18:00 +7°C° 1.1 mm 1 mps 732 mmHg 90%
    19:00 +7°C° 1.1 mm 1 mps 732 mmHg 90%
    20:00 +6°C° 0.6 mm 1 mps 732 mmHg 90%
    21:00 +6°C° 0.6 mm 1 mps 732 mmHg 90%
    22:00 +6°C° 0.6 mm 1 mps 732 mmHg 90%
    23:00 +5°C° 0.3 mm 2 mps 732 mmHg 90%

    28 October, Sunday

    Time Temperature Precipitation Wind Pressure Humidity
    00:00 +5°C° 0.3 mm 2 mps 731 mmHg 91%
    01:00 +5°C° 0.3 mm 2 mps 731 mmHg 91%
    02:00 +5°C° 0.1 mm 2 mps 731 mmHg 91%
    03:00 +5°C° 0.1 mm 2 mps 730 mmHg 92%
    04:00 +5°C° 0.1 mm 2 mps 730 mmHg 92%
    05:00 +5°C° 0.1 mm 2 mps 730 mmHg 92%
    06:00 +4°C° 0.1 mm 3 mps 729 mmHg 92%
    07:00 +4°C° 0.1 mm 3 mps 729 mmHg 93%
    08:00 +4°C° 0.1 mm 3 mps 729 mmHg 93%
    09:00 +4°C° 0.1 mm 3 mps 728 mmHg 93%
    10:00 +5°C° 0.1 mm 3 mps 728 mmHg 93%
    11:00 +7°C° 0.1 mm 3 mps 728 mmHg 93%
    12:00 +7°C° 0.1 mm 2 mps 728 mmHg 92%
    13:00 +8°C° 0.1 mm 2 mps 728 mmHg 92%
    14:00 +8°C° 0.1 mm 2 mps 727 mmHg 93%
    15:00 +8°C° 0.1 mm 2 mps 727 mmHg 95%
    16:00 +8°C° 0.1 mm 2 mps 727 mmHg 96%
    17:00 +8°C° 0.3 mm 2 mps 727 mmHg 96%
    18:00 +8°C° 0.3 mm 2 mps 727 mmHg 96%
    19:00 +8°C° 0.3 mm 2 mps 727 mmHg 97%
    20:00 +8°C° 0.4 mm 2 mps 727 mmHg 96%
    21:00 +7°C° 0.4 mm 2 mps 727 mmHg 96%
    22:00 +7°C° 0.4 mm 2 mps 728 mmHg 96%
    23:00 +8°C° 0.2 mm 2 mps 727 mmHg 96%

    29 October, Monday

    Time Temperature Precipitation Wind Pressure Humidity
    00:00 +8°C° 0.2 mm 2 mps 727 mmHg 96%
    01:00 +8°C° 0.2 mm 2 mps 727 mmHg 96%
    02:00 +8°C° 0.2 mm 2 mps 727 mmHg 96%
    03:00 +8°C° 0.2 mm 2 mps 726 mmHg 96%
    04:00 +8°C° 0.2 mm 2 mps 726 mmHg 96%
    05:00 +9°C° 0.2 mm 1 mps 726 mmHg 97%
    06:00 +9°C° 0.2 mm 1 mps 726 mmHg 97%
    07:00 +9°C° 0.2 mm 1 mps 726 mmHg 97%
    08:00 +10°C° 0.3 mm 1 mps 726 mmHg 96%
    09:00 +10°C° 0.3 mm 1 mps 726 mmHg 95%
    10:00 +10°C° 0.3 mm 1 mps 726 mmHg 95%
    11:00 +10°C° 0.1 mm 2 mps 726 mmHg 94%
    12:00 +12°C° 0.1 mm 2 mps 726 mmHg 92%
    13:00 +12°C° 0.1 mm 2 mps 726 mmHg 91%
    14:00 +12°C° 0 mm 2 mps 726 mmHg 92%
    15:00 +12°C° 0 mm 2 mps 726 mmHg 93%
    16:00 +12°C° 0 mm 2 mps 726 mmHg 94%
    17:00 +10°C° 0 mm 2 mps 726 mmHg 95%
    18:00 +10°C° 0 mm 2 mps 727 mmHg 96%
    19:00 +10°C° 0 mm 2 mps 727 mmHg 97%
    20:00 +10°C° 0 mm 2 mps 727 mmHg 97%
    21:00 +10°C° 0 mm 2 mps 727 mmHg 97%
    22:00 +10°C° 0 mm 2 mps 726 mmHg 97%
    23:00 +10°C° 0.1 mm 2 mps 726 mmHg 97%

    30 October, Tuesday

    Time Temperature Precipitation Wind Pressure Humidity
    00:00 +10°C° 0.1 mm 2 mps 726 mmHg 97%
    01:00 +10°C° 0.1 mm 2 mps 726 mmHg 97%
    02:00 +12°C° 0 mm 2 mps 726 mmHg 97%
    03:00 +12°C° 0 mm 2 mps 725 mmHg 97%
    04:00 +12°C° 0 mm 2 mps 725 mmHg 98%
    05:00 +12°C° 0 mm 3 mps 725 mmHg 97%
    06:00 +12°C° 0 mm 3 mps 725 mmHg 97%
    07:00 +13°C° 0 mm 4 mps 725 mmHg 97%
    08:00 +13°C° 0 mm 4 mps 724 mmHg 95%
    09:00 +14°C° 0 mm 4 mps 724 mmHg 92%
    10:00 +15°C° 0 mm 4 mps 724 mmHg 90%
    11:00 +15°C° 0 mm 4 mps 724 mmHg 88%
    12:00 +16°C° 0 mm 3 mps 724 mmHg 86%
    13:00 +17°C° 0 mm 3 mps 724 mmHg 85%
    14:00 +16°C° 0 mm 3 mps 724 mmHg 86%
    15:00 +16°C° 0 mm 3 mps 723 mmHg 88%
    16:00 +14°C° 0 mm 3 mps 723 mmHg 89%
    17:00 +15°C° 0.8 mm 2 mps 723 mmHg 91%
    18:00 +14°C° 0.8 mm 2 mps 723 mmHg 93%
    19:00 +13°C° 0.8 mm 1 mps 723 mmHg 95%
    20:00 +13°C° 1.1 mm 2 mps 724 mmHg 95%
    21:00 +13°C° 1.1 mm 2 mps 724 mmHg 95%
    22:00 +12°C° 1.1 mm 2 mps 725 mmHg 95%
    23:00 +11°C° 0.2 mm 3 mps 725 mmHg 93%
    Show more